Location: Bjelajci
(45.0103°N, 16.1758°E)
Time: 18:50:48
(UTC+00:00)

SAR-Lupe-3 - Pass Details

Date: 14 July 2020
Orbit: 482 x 484 km, 98.1° (Epoch: 21 June)

Event Time Altitude Azimuth Distance (km) Brightness Sun altitude
Rises 00:26:21 0° 14° (NNE) 2,561 9.8 -20.6°
Reaches altitude 10° 00:28:26 10° 16° (NNE) 1,676 8.5 -20.5°
Maximum altitude 00:32:02 78° 103° (ESE) 501 4.5 -20.2°
Enters shadow 00:32:23 68° 161° (SSE) 526 4.4 -20.2°
